RH
100 99 96 100 99 98 100 92 94 88 85 85 79 79 79 84 74 71 69 62 67 56 60 61 46 34 30 26 24 24 24 24 19 16 15 10 12 13 16 15 16 18 19 18 21 51 83 90 79 97 98 95 100 100
100 94 100 100 99 100 100 100 100 91 85 82 81 84 82 84 77 68 63 59 58 60 64 54 39 33 28 27 28 26 26 23 18 17 12 11 13 16 17 15 18 20 19 20 37 67 94 97 89 100 85 100 100 100
100 98 99 91 96 100 100 100 95 99 97 91 87 82 82 84 82 83 81 75 71 71 58 45 39 32 30 30 26 25 27 20 17 13 11 13 15 17 16 15 20 19 20 27 62 84 96 100 92 100 87 100 100 100
100 100 100 96 96 90 96 100 99 94 90 96 100 100 99 92 95 88 81 75 69 58 49 40 38 37 32 30 26 28 23 17 14 12 11 15 15 17 16 17 21 20 23 57 89 95 91 96 100 100 99 100 100 100
99 95 97 100 100 100 94 96 99 100 95 98 100 97 96 99 99 92 80 74 68 56 44 44 46 41 33 30 28 28 17 13 13 14 14 16 16 16 16 19 21 23 47 65 90 90 98 99 100 100 100 100 100 100
100 89 91 100 100 100 100 97 96 95 100 98 96 99 91 86 86 90 92 83 71 61 56 53 52 40 31 27 30 23 15 13 14 16 15 16 17 16 17 21 22 28 62 78 82 90 95 100 100 100 100 100 100 100
99 96 95 96 100 97 93 98 100 98 96 94 98 100 97 85 85 85 82 82 68 51 52 51 44 39 29 28 28 18 14 14 16 16 15 15 16 16 20 23 23 44 72 80 74 83 92 100 100 96 100 100 100 100
78 71 64 68 93 93 91 93 91 98 99 100 94 88 84 83 88 86 83 72 61 54 47 42 42 32 28 31 26 16 17 16 16 14 14 16 16 19 25 29 32 54 81 76 76 87 96 100 100 100 100 100 100 100
68 65 70 90 100 100 100 99 95 99 97 98 94 89 85 81 81 81 83 66 47 46 44 46 37 32 30 31 19 18 19 18 15 14 16 18 19 26 30 33 36 65 84 80 77 86 100 100 100 100 100 100 100 100
84 74 68 80 99 100 100 100 98 98 100 96 94 91 84 83 91 92 77 50 50 53 49 39 34 33 32 24 17 20 20 17 15 16 18 22 24 32 33 39 56 82 88 75 95 94 100 100 100 100 100 100 100 100
70 72 78 92 99 100 100 100 100 100 98 91 93 91 94 100 98 91 64 60 58 50 42 37 34 33 29 17 20 22 20 17 16 18 21 22 25 39 46 61 76 100 93 83 86 100 100 100 97 100 100 100 100 100
64 71 73 92 100 98 99 100 94 90 84 84 86 94 92 90 89 72 62 58 47 40 39 37 36 33 21 17 24 22 19 17 18 21 20 25 43 51 59 71 92 100 92 76 75 90 97 100 100 100 100 100 100 100
58 65 71 82 95 95 94 84 78 83 87 90 94 85 83 78 69 57 52 41 37 40 38 36 32 26 16 24 25 22 19 19 19 20 20 34 51 68 66 69 99 100 100 80 75 78 84 96 100 100 100 100 100 100
49 52 61 76 86 90 86 91 93 86 87 77 82 84 79 72 52 50 44 40 39 39 37 32 23 20 20 27 25 22 21 20 18 19 21 37 56 68 69 81 97 100 100 79 79 79 78 96 100 100 100 100 100 100
46 46 49 52 58 73 86 92 91 82 79 74 71 76 70 52 47 41 39 38 37 34 29 22 24 23 26 27 24 23 23 22 21 19 25 30 63 87 100 96 94 100 100 83 80 73 78 89 100 98 100 100 100 100
50 52 46 46 47 48 52 57 63 70 72 67 62 54 43 41 38 35 35 35 28 23 22 25 28 29 27 27 26 27 27 20 21 20 32 30 56 88 97 99 96 97 100 95 80 68 74 86 100 89 99 100 100 100
43 44 48 48 49 49 46 42 42 46 49 48 50 41 36 34 33 34 29 22 19 19 29 32 38 35 28 27 29 27 22 23 23 21 26 31 40 67 83 88 92 93 100 95 91 74 68 85 100 99 99 100 100 100
44 45 46 47 47 47 47 47 48 47 47 46 38 34 32 27 23 22 22 20 17 22 44 43 47 36 28 26 28 26 23 25 23 21 22 26 28 53 57 52 62 82 92 93 97 84 63 71 95 99 92 99 100 100
45 45 46 48 48 46 45 42 39 39 37 35 31 26 22 18 18 23 25 20 17 34 75 65 52 33 27 26 28 26 28 29 22 22 25 23 30 54 48 54 56 68 85 93 97 96 71 64 74 86 90 89 99 100
37 38 38 38 37 36 38 37 30 28 30 33 25 19 19 23 27 26 21 19 21 47 80 71 44 33 28 27 28 27 28 31 24 21 22 21 24 47 75 76 58 64 72 80 94 98 76 61 71 82 86 94 91 100
32 31 30 32 33 32 30 26 27 34 38 37 23 33 40 42 35 26 22 16 31 55 79 70 39 32 32 27 29 27 26 30 28 23 20 22 25 27 57 63 78 82 88 89 94 91 90 66 65 72 75 68 74 89
31 34 38 37 32 28 26 32 39 44 45 45 39 47 43 38 29 22 24 28 39 45 63 55 40 30 36 29 28 26 24 26 30 28 21 18 22 24 45 92 91 86 98 100 100 94 96 90 67 65 73 75 73 88
45 42 41 40 35 32 40 48 53 50 54 55 53 45 37 31 24 17 20 26 36 37 40 44 38 28 34 32 25 28 25 26 26 30 23 19 19 24 30 44 65 91 91 100 100 100 100 98 88 69 67 75 77 84
42 44 41 37 37 45 66 59 56 58 56 52 56 40 31 24 18 19 28 32 29 28 37 37 33 28 27 33 26 25 25 22 20 23 24 22 19 23 28 38 58 96 97 100 100 98 92 98 95 85 70 68 72 84
41 35 33 43 52 66 71 72 87 92 70 62 43 31 25 15 14 25 47 34 21 26 30 32 35 30 26 31 29 22 19 21 21 19 20 22 21 21 23 26 44 80 92 96 100 96 86 78 85 89 78 71 73 82
34 34 35 53 68 71 87 88 87 84 73 54 30 21 13 14 25 38 22 20 21 28 33 32 31 28 26 28 25 20 20 20 17 18 17 20 21 20 21 25 30 41 52 62 81 100 90 76 82 84 85 71 74 81
25 38 54 68 79 96 98 97 89 76 50 27 18 13 16 26 32 17 18 24 30 32 28 28 28 25 23 24 22 17 16 18 20 19 16 18 20 20 19 21 27 32 33 37 46 67 77 79 76 98 89 82 72 79
39 55 68 71 81 100 100 94 80 60 37 17 16 25 31 34 24 16 26 28 33 34 28 26 24 23 22 22 19 18 19 21 22 19 16 18 20 21 20 19 21 23 25 32 33 34 47 58 76 89 99 91 82 78
49 58 64 81 95 94 91 91 68 32 15 20 33 36 36 39 25 26 24 26 29 30 28 26 25 23 21 19 19 18 18 18 20 21 20 21 23 24 23 22 20 20 21 24 28 29 36 54 80 93 99 98 90 84
71 90 92 89 92 83 69 48 22 13 22 42 42 37 34 30 24 27 25 26 28 28 27 25 22 20 19 21 21 20 17 16 18 20 20 20 22 24 26 24 24 22 21 25 26 28 39 54 69 87 98 98 95 95
93 100 84 71 53 46 28 17 17 30 45 40 36 37 30 24 32 27 23 22 22 23 23 21 20 19 19 18 17 16 17 18 21 23 23 20 18 21 24 24 23 21 21 26 37 44 48 53 60 67 72 81 89 89
66 44 31 31 28 17 20 31 41 42 39 35 31 28 25 28 26 24 22 17 16 15 17 20 20 19 18 17 16 15 15 17 20 23 25 23 21 21 23 23 23 23 24 27 31 37 49 54 53 55 64 81 81 85
15 13 16 21 32 35 32 32 37 36 35 34 32 36 32 29 26 19 11 14 18 18 18 23 25 20 18 16 15 14 14 16 18 19 22 22 20 20 22 24 24 24 23 24 29 35 40 44 50 56 58 61 66 68
Wind_Speed
78 77 73 72 71 68 65 65 63 63 61 60 60 58 59 59 59 59 59 59 60 63 62 61 60 60 62 63 66 67 71 74 72 66 61 50 36 25 18 14 12 14 19 24 34 39 40 43 42 40 39 33 26 21
82 79 76 75 72 70 70 68 67 66 64 63 61 60 59 59 59 59 61 63 62 64 62 61 62 63 63 66 70 71 72 69 60 55 52 38 27 20 13 13 15 21 25 32 38 40 48 48 45 40 39 31 26 21
84 83 81 78 73 71 69 69 69 70 67 65 63 61 60 59 58 59 62 64 64 63 63 64 64 63 66 70 72 71 67 60 53 49 39 26 22 16 14 15 20 26 29 39 45 49 54 51 45 39 38 31 24 20
86 82 82 79 77 75 73 72 72 71 70 67 65 64 62 61 61 62 64 64 66 65 66 66 65 67 70 73 72 69 60 52 45 41 30 22 18 15 16 19 24 28 35 50 53 58 56 51 44 39 37 30 25 21
88 85 81 78 80 79 75 74 74 73 71 68 67 65 65 65 64 66 68 69 69 68 67 68 69 70 73 73 71 64 52 44 36 33 24 18 15 16 20 24 28 37 47 57 62 61 55 51 46 39 34 30 27 22
90 85 83 83 82 80 78 78 76 75 73 71 70 70 71 69 67 69 69 70 71 70 70 70 74 75 73 70 66 56 46 37 30 26 18 16 16 20 25 30 37 43 58 63 66 61 57 52 45 38 35 32 26 23
96 91 89 88 88 85 81 80 78 77 75 74 73 73 72 69 69 71 72 73 72 70 69 71 75 78 74 64 60 50 38 30 24 19 15 15 19 25 30 36 42 49 63 66 65 64 57 53 45 41 38 33 28 23
97 92 90 91 89 87 85 82 80 78 78 78 78 75 73 71 70 71 72 73 73 70 68 73 77 78 72 64 56 44 33 24 18 15 14 19 25 30 36 42 48 56 66 69 66 63 58 51 46 42 39 34 27 24
99 95 92 90 88 86 85 84 82 82 80 79 77 75 73 70 70 71 73 75 74 72 74 76 78 79 64 59 47 33 28 21 14 13 18 24 29 35 43 47 50 59 67 70 66 64 58 51 48 43 39 35 29 25
98 95 91 90 87 86 85 84 83 81 80 78 76 74 73 73 74 76 78 77 76 77 78 79 79 70 58 50 35 27 23 17 15 16 25 31 38 43 46 49 53 62 70 69 64 65 57 54 51 46 43 36 30 28
97 93 90 89 87 86 84 81 81 81 79 77 75 75 75 76 77 80 80 79 78 80 80 80 73 62 54 39 26 23 20 17 18 21 30 36 40 46 50 53 58 70 73 72 70 64 61 57 53 48 44 37 32 31
96 92 91 88 87 86 83 82 84 80 78 76 76 78 78 80 81 82 84 82 81 81 81 79 68 57 44 28 22 20 19 21 23 28 33 37 47 51 54 56 63 72 74 71 71 67 63 60 55 51 46 39 32 32
97 93 91 89 87 86 86 85 82 80 80 80 81 81 81 85 85 86 84 83 83 83 79 68 56 43 31 20 21 19 21 25 27 30 31 44 53 55 57 59 67 69 74 71 70 69 66 64 60 54 47 40 35 34
100 96 93 91 90 89 87 84 84 84 84 82 83 84 85 88 90 89 86 86 84 78 66 57 41 32 23 20 21 21 25 30 31 31 34 49 56 57 56 60 70 71 77 74 71 69 67 65 59 55 49 41 37 35
105 101 98 95 92 90 88 88 89 87 84 86 87 88 90 92 94 90 88 81 72 63 53 40 29 28 23 22 22 24 30 35 32 31 34 47 54 58 59 59 69 73 78 77 71 69 67 67 62 59 52 45 40 36
108 106 102 98 97 93 92 90 89 89 90 91 91 95 97 96 87 79 72 66 58 49 37 29 27 29 26 24 23 28 36 34 36 33 39 51 63 67 61 61 67 71 78 77 74 71 66 67 64 61 55 48 44 41
101 97 97 97 96 96 96 95 93 94 94 93 95 93 86 76 70 67 62 54 46 35 26 27 30 33 29 28 26 30 35 38 40 39 42 50 63 72 66 64 67 74 75 80 76 75 71 70 68 65 60 52 47 45
94 94 93 94 93 93 93 91 90 87 81 83 80 72 68 63 59 56 52 45 36 23 24 30 33 37 33 29 24 26 35 42 43 41 40 49 60 67 70 67 65 70 74 79 81 78 76 73 73 69 65 59 52 47
85 84 85 85 84 82 78 76 72 68 66 64 63 61 56 55 53 47 42 36 26 20 27 34 40 36 32 27 25 26 35 45 47 44 44 42 59 66 65 63 64 67 74 76 81 81 79 77 71 73 69 64 59 52
75 74 73 72 70 69 66 63 59 56 55 55 54 51 51 51 46 42 38 31 25 24 33 41 42 36 33 30 29 28 35 45 48 48 45 43 43 64 64 63 60 62 68 76 79 82 80 78 74 73 73 69 65 59
66 66 64 60 56 55 53 52 51 51 53 50 45 47 48 48 46 43 38 31 29 32 39 43 41 34 33 33 32 31 37 44 49 49 46 47 47 54 67 68 63 59 66 72 78 80 82 80 77 74 72 71 71 67
52 48 47 50 50 51 49 49 49 50 49 47 45 47 48 48 46 42 41 38 37 38 39 42 41 34 35 39 36 34 34 39 45 49 49 48 50 51 64 66 68 68 65 72 78 79 79 80 80 77 75 71 72 70
50 51 50 49 47 46 47 49 50 48 46 45 46 47 48 49 48 44 40 40 42 40 34 40 43 38 38 40 35 35 36 39 44 50 52 49 51 56 62 68 72 74 71 71 78 84 81 81 81 80 77 74 75 72
52 51 48 47 46 46 48 48 47 47 45 43 47 48 48 49 45 46 44 46 45 30 38 40 38 39 37 39 41 41 42 42 46 49 52 52 53 59 64 67 71 79 78 77 78 79 84 84 83 82 81 78 78 74
51 49 47 46 46 46 46 45 43 46 46 49 47 47 48 46 38 40 49 53 23 27 30 32 37 42 36 38 45 42 40 39 44 49 51 52 56 60 64 70 75 82 83 84 85 81 80 78 85 84 83 82 82 80
49 45 43 44 41 37 37 38 41 46 51 51 46 48 43 35 39 51 45 27 26 28 31 36 40 43 42 43 46 44 40 40 43 47 50 51 57 61 63 65 73 82 85 85 86 86 84 80 78 85 85 83 83 83
38 37 39 41 41 40 40 42 43 47 47 43 44 39 31 31 44 44 28 24 25 29 33 37 39 39 43 44 43 40 35 37 41 49 51 49 54 59 63 67 71 77 77 80 84 86 85 84 78 83 88 87 84 85
38 39 42 42 39 42 47 49 50 45 43 41 27 22 28 36 45 27 27 28 30 32 35 37 37 38 40 41 40 37 35 36 41 48 48 47 51 54 59 63 68 68 69 73 76 78 79 79 80 83 88 88 88 86
41 42 42 40 43 46 48 53 50 44 36 20 24 27 33 38 38 32 28 29 30 32 35 37 37 38 39 39 38 36 36 37 42 45 47 46 48 52 53 58 60 60 62 65 70 71 72 74 77 81 86 89 87 87
35 39 43 46 46 50 51 48 44 30 18 24 27 24 30 39 34 28 31 32 33 35 37 39 39 39 39 38 37 38 38 38 42 45 46 47 49 52 55 59 61 59 59 60 62 64 67 70 75 81 86 88 88 88
49 52 53 55 49 45 47 41 26 19 23 25 23 28 36 36 32 35 37 39 40 41 41 40 37 39 41 41 39 38 39 40 41 43 46 46 46 48 53 56 59 59 58 59 62 67 70 71 74 77 79 82 85 85
61 60 55 47 46 39 21 20 23 25 26 27 30 31 31 33 40 41 43 41 38 35 32 34 38 39 40 41 39 40 43 43 44 45 47 48 48 47 50 54 56 58 60 62 63 65 68 69 71 72 75 79 82 83
47 36 30 26 25 29 31 26 25 27 24 24 26 31 37 40 43 48 42 34 34 34 32 34 40 40 41 42 42 42 42 44 44 46 49 51 50 49 50 53 56 58 58 60 61 63 64 67 69 71 72 73 76 76
Wind_Direction
232 234 236 241 242 243 246 251 254 256 259 262 265 265 267 271 272 273 276 278 283 286 287 292 297 301 303 305 307 308 309 308 306 306 303 305 301 293 286 262 234 211 193 182 164 156 159 155 155 161 154 153 153 148
231 233 237 239 243 245 246 250 255 258 261 263 266 268 270 272 275 277 278 279 281 284 289 293 297 302 304 307 308 310 312 308 308 304 300 302 290 283 267 237 203 192 182 174 158 154 154 156 160 158 158 157 158 149
233 233 236 239 243 246 248 252 256 259 261 265 266 268 271 275 276 278 279 281 284 286 290 294 298 301 304 308 309 313 312 310 308 301 298 294 282 268 238 212 195 189 179 167 154 157 158 159 160 158 160 164 158 159
232 234 236 238 243 246 248 251 254 259 262 263 266 268 272 274 277 279 281 282 284 287 290 295 299 304 307 309 313 314 311 311 304 296 293 286 271 248 219 195 191 185 172 159 158 161 160 160 160 162 165 161 164 161
231 233 236 240 243 244 247 252 255 258 261 263 265 267 269 272 277 280 281 284 286 288 291 295 300 303 306 311 315 312 310 307 297 292 289 271 253 225 203 184 180 170 167 164 160 160 162 161 162 164 166 169 170 162
232 235 239 241 243 246 249 251 255 257 259 262 265 267 270 273 276 279 282 283 285 288 291 297 300 303 310 314 313 308 310 298 293 288 278 251 227 206 195 178 175 173 169 166 161 161 163 163 163 168 168 172 166 157
231 234 237 240 243 245 248 251 253 257 259 261 265 267 270 274 277 279 281 283 284 287 294 297 300 307 312 314 311 308 304 292 293 283 260 230 205 196 186 176 175 172 171 167 163 164 165 166 165 171 174 173 165 161
234 236 238 240 243 245 248 252 254 256 259 261 263 266 270 274 276 279 281 282 284 289 294 297 302 308 312 314 309 307 297 295 286 265 235 209 194 185 178 177 174 174 172 167 165 164 169 168 169 171 174 176 170 166
234 236 238 240 242 246 249 251 254 257 259 261 263 267 270 274 278 280 281 283 287 292 295 299 304 309 310 311 307 299 292 288 272 241 213 194 184 180 177 179 175 174 175 169 168 169 172 170 170 174 176 177 175 170
233 235 237 238 241 244 247 249 252 255 258 260 263 266 270 274 277 279 282 284 288 292 297 301 305 310 310 305 301 288 285 273 245 216 201 184 181 181 179 177 176 176 172 169 170 173 173 172 172 176 178 181 176 174
232 234 236 238 241 243 246 249 251 254 256 260 263 267 271 273 276 279 281 284 288 293 298 301 306 307 307 299 287 278 267 246 225 206 198 191 179 176 177 176 178 177 172 175 174 175 177 175 176 179 180 182 180 177
231 234 235 237 240 243 246 248 251 254 257 260 265 267 270 274 276 279 281 286 290 295 298 301 304 304 294 288 270 263 248 227 211 203 197 182 178 178 178 176 179 180 177 177 177 178 181 178 179 182 181 183 182 181
230 233 235 238 240 243 245 249 252 255 258 261 264 268 271 273 277 277 281 286 292 294 297 298 298 290 279 264 252 246 235 218 210 206 191 181 180 179 181 181 181 183 180 181 181 181 182 180 180 183 182 184 186 184
231 233 235 238 241 243 246 249 253 256 259 262 264 268 271 274 276 279 284 288 290 292 292 290 289 269 257 239 237 233 221 219 213 209 187 179 181 183 186 184 183 184 182 183 183 184 184 181 183 184 185 186 188 187
233 234 236 238 241 244 247 250 253 256 260 263 266 268 270 273 276 281 283 285 286 285 284 283 265 251 237 224 225 225 215 217 212 209 194 182 182 184 186 186 186 185 183 186 185 187 186 185 185 187 188 189 189 189
234 235 237 239 242 244 247 251 254 256 259 262 266 268 271 274 276 277 278 279 279 278 276 261 243 236 226 218 215 218 216 217 213 205 193 185 183 184 185 189 190 190 186 188 188 189 189 189 191 192 191 192 192 190
237 239 241 242 243 246 249 252 255 257 260 264 267 267 268 271 272 273 274 274 271 269 253 239 228 230 222 216 214 216 220 215 214 208 198 193 189 186 188 191 193 192 191 189 191 192 193 192 194 196 194 191 195 196
240 242 243 245 248 250 252 255 257 260 262 262 263 265 267 268 267 266 265 263 261 245 233 231 225 228 221 217 217 216 220 219 218 213 205 197 197 197 198 198 195 195 193 192 193 194 195 195 196 198 199 197 197 200
238 241 243 246 248 251 254 255 255 256 255 255 257 258 261 260 259 258 256 253 244 214 224 228 229 224 221 214 213 213 216 222 224 217 210 205 199 201 203 203 199 197 194 194 195 196 197 197 199 200 202 202 202 203
236 238 240 242 245 248 250 250 249 249 246 246 248 251 251 253 254 252 250 242 222 223 229 228 227 221 220 213 213 209 213 222 225 223 215 206 200 200 201 203 204 199 199 197 198 198 199 198 200 202 203 206 206 205
230 233 235 237 238 238 239 240 238 239 241 243 246 247 247 248 248 247 244 238 230 232 229 228 229 217 222 218 218 216 214 216 225 225 219 209 198 196 202 204 203 202 201 202 202 202 202 203 203 205 208 210 209 208
225 226 224 225 228 231 233 235 234 235 238 239 240 245 246 247 245 243 241 239 237 235 227 226 229 216 220 225 219 219 219 220 222 227 224 210 201 194 199 200 205 204 203 204 205 206 206 206 208 208 210 211 211 210
214 217 220 223 226 229 230 232 234 238 238 240 241 243 244 246 246 246 243 243 242 232 221 225 232 222 219 227 221 221 222 219 216 219 226 219 203 194 198 199 205 205 204 204 208 208 208 209 210 211 213 214 213 214
214 217 219 223 226 228 230 233 238 241 244 247 246 241 241 244 244 245 247 248 242 220 221 224 232 233 225 226 228 219 222 223 218 214 216 219 210 196 195 198 203 205 205 202 206 210 212 211 213 213 212 215 216 216
216 219 220 222 227 231 234 239 244 250 251 248 239 236 238 241 241 246 248 248 230 224 225 228 231 234 229 226 235 227 225 224 226 220 214 213 210 205 202 204 200 203 206 210 212 213 215 216 214 215 215 214 217 218
218 220 221 220 225 229 235 240 242 245 245 244 236 236 239 242 248 250 246 239 229 226 227 229 231 230 229 228 231 228 224 227 228 225 219 211 212 210 206 203 203 208 211 212 211 212 218 218 216 217 217 216 217 219
217 215 220 223 224 228 233 239 240 242 242 238 238 241 242 241 247 246 238 233 233 235 233 232 233 232 232 234 238 236 230 228 229 227 224 214 216 216 213 208 207 211 212 214 215 215 219 220 218 219 218 217 217 220
218 220 224 225 223 227 232 241 246 246 244 242 244 232 226 231 240 237 234 227 226 230 233 233 232 232 232 235 236 233 231 231 231 230 226 218 218 220 222 219 218 217 215 215 219 218 218 219 219 220 219 219 219 219
221 224 224 226 226 229 233 239 243 241 237 233 218 212 221 232 239 237 231 225 226 229 231 233 232 230 229 229 230 233 234 228 224 225 223 219 220 221 223 226 224 221 221 219 220 220 218 218 218 219 220 222 222 223
219 219 220 220 222 227 233 239 236 234 211 210 212 212 224 237 234 232 231 230 228 229 230 231 231 231 229 227 231 235 234 227 222 222 222 219 218 220 220 221 223 222 220 220 221 221 220 219 220 221 221 222 223 224
215 215 220 223 225 228 231 234 232 217 218 218 212 218 226 231 239 238 236 232 229 227 228 229 231 233 235 236 234 231 229 225 221 223 226 226 224 221 222 222 222 222 220 219 219 220 220 220 221 222 224 226 227 228
215 217 219 223 229 231 225 214 215 219 219 219 219 223 228 236 243 244 243 240 240 240 240 243 243 243 244 243 238 232 227 223 220 220 223 225 225 222 221 224 224 224 222 221 221 220 221 222 223 224 224 226 228 229
221 226 230 232 230 220 215 213 219 224 226 231 233 234 237 238 242 248 249 244 250 253 245 238 238 238 236 237 236 232 227 225 224 224 224 225 224 223 221 222 224 223 222 221 221 222 224 224 225 227 227 229 232 233